Regional Weather Roundup
Issued by NWS New Orleans/Baton Rouge, LA

Home | Current Version | Previous Version | Graphics & Text | Print | Product List | Glossary On
Versions: 1 2 3 4 5 6 7 8 9 10 11 12 13 14 15 16 17 18 19 20 21 22 23 24 25 26 27 28 29 30 31 32 33 34 35 36 37 38 39 40 41 42 43 44 45 46 47 48 49 50
063
ASUS44 KLIX 270607
RWRLIX
NEW ORLEANS REGIONAL WEATHER ROUNDUP
NATIONAL WEATHER SERVICE NEW ORLEANS LA
100 AM CDT FRI MAR 27 2015

NOTE: "FAIR" INDICATES FEW OR NO CLOUDS BELOW 12,000 FEET WITH NO
      SIGNIFICANT WEATHER AND/OR OBSTRUCTIONS TO VISIBILITY.
      SKY/WX - SKY CONDITION AND SIGNIFICANT WEATHER.
      TMP - AIR TEMPERATURE.     DP    - DEWPOINT TEMPERATURE.
      RH  - RELATIVE HUMIDITY.   PRES  - PRESSURE.
      HI  - HEAT INDEX.          WCI   - WIND CHILL INDEX.

*  THESE STATIONS ARE NOT NWS OR FAA STATIONS AND ARE NOT UNDER
   NWS QUALITY CONTROL.

LAZ038-040-048-061>063-065>067-069-270700-
SOUTHEAST LOUISIANA

CITY           SKY/WX    TMP DP  RH WIND       PRES   REMARKS
N.O. AUDUBON     N/A     59  58  98 MISG        N/A
6HR MIN TEMP:  59; 6HR MAX TEMP:  66;

N.O. INTL ARPT CLOUDY    59  53  80 NW15G24   29.96R
6HR MIN TEMP:  59; 6HR MAX TEMP:  66;

N.O. LAKEFRONT CLOUDY    61  55  81 NW25      29.96R
6HR MIN TEMP:  61; 6HR MAX TEMP:  68; 6HR PCP: TRACE;

SLIDELL        CLOUDY    57  53  86 N9        29.93S
6HR MIN TEMP:  57; 6HR MAX TEMP:  65; 6HR PCP: TRACE;

BATON ROUGE    CLOUDY    54  48  80 VRB5      30.01R
6HR MIN TEMP:  54; 6HR MAX TEMP:  66; 6HR PCP:  0.01;

BOOTHVILLE     CLOUDY    64  63  96 W3        29.90S FOG
6HR MIN TEMP:  61; 6HR MAX TEMP:  65;

BELLE CHASSE   CLOUDY    60  56  86 NW12G26   29.93R
6HR MIN TEMP:  60; 6HR MAX TEMP:  65;

BOGALUSA*        N/A     56  50  80 N10       29.97R
6HR MIN TEMP:  56; 6HR MAX TEMP:  68; 6HR PCP:  0.02;

GALLIANO*      CLOUDY    52  51  98 MISG      29.93R
6HR MIN TEMP:  52; 6HR MAX TEMP:  57;

NEW ROADS*     CLOUDY    54  47  77 N12G18    30.03R
6HR MIN TEMP:  54; 6HR MAX TEMP:  65;

GONZALES*      CLOUDY    56  52  85 NW14      29.98S
6HR MIN TEMP:  56; 6HR MAX TEMP:  66;

HAMMOND*       CLOUDY    55  48  76 N13       30.00R
HOUMA*         CLOUDY    58  55  92 NW15G23   29.94F
6HR MIN TEMP:  58; 6HR MAX TEMP:  65;

PORT FOURCHON* CLOUDY    66  64  94 NW15      29.95R

$$

MSZ070-080>082-270700-
SOUTHERN MISSISSIPPI

CITY           SKY/WX    TMP DP  RH WIND       PRES   REMARKS
MCCOMB         CLOUDY    52  46  80 N13G23    29.99R
6HR MIN TEMP:  52; 6HR MAX TEMP:  66; 6HR PCP:  0.01;

GULFPORT       CLOUDY    60  57  89 N15       29.89R
6HR MIN TEMP:  60; 6HR MAX TEMP:  66; 6HR PCP: TRACE;

BILOXI         CLOUDY    61  61 100 NW15G21   29.87S
PASCAGOULA     CLOUDY    64  60  87 W8        29.86S
6HR MIN TEMP:  62; 6HR MAX TEMP:  67;


$$

COASTAL OBSERVATIONS
LAKE AND NEARSHORE STATIONS

STATION/POSITION TIME  TEMP    WIND        PRES    WAVE
                       AIR SEA DIR/SP/G            HT/PER
                 (UTC) (F)     (DEG/KT/KT) (MB)    (FT/S)
PASCAGOULA       0500   66     270/  9/ 13 1010.8
WAVELAND YACHT   0500   63 70  330/ 15/ 18 1011.8
GRAND ISLE       0500   68 70  290/ 12/ 13 1012.2
SOUTHWEST PASS   0500   62 51  310/ 11/ 12 1012.8
NEW CANAL        0500   62     350/ 20/ 25 1013.3
SHELL BEACH      0500   64 71  250/  7/  9 1012.0

OFFSHORE STATIONS

STATION/POSITION TIME  TEMP    WIND        PRES    WAVE
                       AIR SEA DIR/SP/G            HT/PER
                 (UTC) (F)     (DEG/KT/KT) (MB)    (FT/S)
64 S DAUPHIN ISL 0550   69 73  270/ 19/ 23 1011.5    4/ 7

$$




USA.gov is the U.S. government's official web portal to all federal, state and local government web resources and services.